Tracking 20621 objects as of 31-Mar-2020
HD Live streaming from Space Station
objects crossing your sky now

COSMOS 877

Track COSMOS 877 now!
10-day predictions
COSMOS 877 is classified as:


NORAD ID: 9594
Int'l Code: 1976-118G
Perigee: 1,461.8 km
Apogee: 1,470.6 km
Inclination: 74.0 °
Period: 115.1 minutes
Semi major axis: 7837 km
RCS: 0.6978 m2 (medium)
Launch date: December 7, 1976
Source: Commonwealth of Independent States (former USSR) (CIS)
Launch site: PLESETSK MISSILE AND SPACE COMPLEX (PKMTR)
aabbcc
Your satellite tracking list
Your tracking list is empty




NASA's NSSDC Master Catalog

Two Line Element Set (TLE):
1  9594U 76118G   20090.41856323 -.00000005 +00000-0 +73711-4 0  9992
2  9594 074.0314 053.5091 0005642 026.7938 131.5557 12.51298825978333
Source of the keplerian elements: AFSPC